GW4890 Weather Reports


time (UTC)temp
F
wind
direction
speed
knots
gust
knots
rain 1hr
in
rain 24hr
in
rain mn
in
humidity
%
barometer
mb
20260508010123 66 345 5.2 12.2 0.00 0.00 0.00 24 1005.2
20260508005143 66 329 7.0 14.8 0.00 0.00 0.00 25 1005.2
20260508004122 66 339 7.0 13.0 0.00 0.00 0.00 25 1005.2
20260508003122 67 309 5.2 11.3 0.00 0.00 0.00 25 1005.2
20260508002122 68 37 5.2 11.3 0.00 0.00 0.00 24 1005.2
20260508001143 68 44 7.0 20.0 0.00 0.00 0.00 24 1005.0
20260508000123 69 84 5.2 12.2 0.00 0.00 0.00 23 1005.0
20260507235122 70 348 3.5 12.2 0.00 0.00 0.00 23 1005.0
20260507234143 69 5 2.6 7.8 0.00 0.00 0.00 23 1004.9
20260507233122 68 12 3.5 10.4 0.00 0.00 0.00 24 1004.9
20260507232122 68 333 7.0 15.6 0.00 0.00 0.00 23 1005.0
20260507231123 68 298 4.3 10.4 0.00 0.00 0.00 23 1005.0
20260507230123 68 282 5.2 13.9 0.00 0.00 0.00 23 1005.0
20260507225123 67 305 4.3 12.2 0.00 0.00 0.00 24 1005.0
20260507224123 68 352 7.8 22.6 0.00 0.00 0.00 23 1005.1
20260507223123 68 21 6.1 20.0 0.00 0.00 0.00 24 1005.2
20260507222125 68 356 8.7 20.9 0.00 0.00 0.00 23 1005.1
20260507221125 69 329 7.8 28.7 0.00 0.00 0.00 22 1005.2
20260507220146 70 350 8.7 21.7 0.00 0.00 0.00 22 1005.2
20260507215125 71 57 7.0 20.0 0.00 0.00 0.00 21 1005.2
20260507214146 68 354 7.8 20.0 0.00 0.00 0.00 23 1005.3
20260507213126 69 25 7.0 17.4 0.00 0.00 0.00 23 1005.6
20260507212123 68 318 9.6 25.2 0.00 0.00 0.00 23 1005.5
20260507211122 68 313 9.6 26.1 0.00 0.00 0.00 24 1005.7
20260507210123 66 344 10.4 27.8 0.00 0.00 0.00 24 1005.8
20260507205126 68 350 8.7 22.6 0.00 0.00 0.00 24 1005.8
20260507204126 68 353 9.6 24.3 0.00 0.00 0.00 24 1005.9
20260507203122 67 324 8.7 29.5 0.00 0.00 0.00 25 1005.8
20260507202122 66 335 10.4 25.2 0.00 0.00 0.00 25 1005.9
20260507201122 66 298 11.3 25.2 0.00 0.00 0.00 24 1005.8
20260507200122 65 301 10.4 26.1 0.00 0.00 0.00 25 1005.9
20260507195122 65 298 10.4 26.9 0.00 0.00 0.00 25 1005.9
20260507194122 65 324 11.3 29.5 0.00 0.00 0.00 25 1006.0
20260507193126 65 314 11.3 26.9 0.00 0.00 0.00 26 1005.8
20260507192123 65 320 12.2 30.4 0.00 0.00 0.00 28 1005.9
20260507191124 65 307 11.3 25.2 0.00 0.00 0.00 27 1006.0
20260507190122 65 309 10.4 28.7 0.00 0.00 0.00 28 1006.0
20260507185122 64 341 12.2 27.8 0.00 0.00 0.00 28 1005.9
20260507184122 64 328 12.2 27.8 0.00 0.00 0.00 30 1005.9
20260507183122 64 321 8.7 21.7 0.00 0.00 0.00 30 1006.0
20260507182122 63 314 13.0 30.4 0.00 0.00 0.00 30 1006.0
20260507181122 64 342 13.0 28.7 0.00 0.00 0.00 31 1005.9
20260507180122 63 320 12.2 27.8 0.00 0.00 0.00 31 1005.9
20260507175124 63 335 10.4 24.3 0.00 0.00 0.00 31 1005.9
20260507174122 62 332 11.3 29.5 0.00 0.00 0.00 33 1006.1
20260507173122 62 318 13.0 30.4 0.00 0.00 0.00 33 1006.1
20260507172122 62 319 12.2 24.3 0.00 0.00 0.00 33 1006.2
20260507171123 62 318 13.0 29.5 0.00 0.00 0.00 35 1006.2
20260507170122 61 330 13.9 29.5 0.00 0.00 0.00 36 1006.2
20260507165122 61 320 13.0 27.8 0.00 0.00 0.00 36 1006.3
20260507164122 61 331 13.9 27.8 0.00 0.00 0.00 36 1006.3
20260507163143 60 348 13.9 29.5 0.00 0.00 0.00 36 1006.2
20260507162123 60 332 14.8 30.4 0.00 0.00 0.00 36 1006.4
20260507161123 59 337 13.9 28.7 0.00 0.00 0.00 37 1006.5
20260507160122 59 319 13.9 30.4 0.00 0.00 0.00 37 1006.7
20260507155143 59 329 14.8 28.7 0.00 0.00 0.00 38 1006.7
20260507154122 59 317 14.8 33.0 0.00 0.00 0.00 38 1006.8
20260507153143 57 317 12.2 26.9 0.00 0.00 0.00 39 1006.7
20260507152122 57 321 12.2 26.9 0.00 0.00 0.00 41 1006.7
20260507151122 57 319 13.9 28.7 0.00 0.00 0.00 40 1006.8
20260507150143 57 318 13.9 27.8 0.00 0.00 0.00 39 1006.8
20260507145122 56 305 12.2 24.3 0.00 0.00 0.00 41 1006.8
20260507144122 56 306 11.3 23.5 0.00 0.00 0.00 43 1006.7
20260507143122 55 296 11.3 22.6 0.00 0.00 0.00 45 1006.7
20260507142122 54 288 10.4 20.9 0.00 0.00 0.00 45 1006.7
20260507141122 54 295 10.4 23.5 0.00 0.00 0.00 45 1006.6
20260507140122 54 299 9.6 20.0 0.00 0.00 0.00 47 1006.4
20260507135123 53 301 7.8 20.0 0.00 0.00 0.00 48 1006.4
20260507134122 53 292 7.8 15.6 0.00 0.00 0.00 51 1006.3
20260507133126 51 287 7.0 13.9 0.00 0.00 0.00 53 1006.2
20260507132122 51 294 7.8 16.5 0.00 0.00 0.00 53 1006.1
20260507131122 51 289 7.0 13.9 0.00 0.00 0.00 53 1006.0
20260507130126 51 288 7.0 15.6 0.00 0.00 0.00 53 1006.0
20260507125123 51 290 6.1 12.2 0.00 0.00 0.00 54 1006.0
20260507124144 50 294 7.0 14.8 0.00 0.00 0.00 56 1006.0
20260507123126 50 283 7.0 15.6 0.00 0.00 0.00 57 1006.0
20260507122143 50 286 5.2 13.0 0.00 0.00 0.00 58 1005.9
20260507121126 49 292 7.0 14.8 0.00 0.00 0.00 58 1005.8
20260507120123 49 288 8.7 20.0 0.00 0.00 0.00 59 1005.6
20260507115122 48 290 8.7 17.4 0.00 0.00 0.00 60 1005.6
20260507114122 48 280 6.1 13.0 0.00 0.00 0.00 60 1005.4
20260507113125 50 277 7.8 16.5 0.00 0.00 0.00 57 1005.4
20260507112122 50 264 7.8 15.6 0.00 0.00 0.00 57 1005.2
20260507111124 51 266 7.0 13.9 0.00 0.00 0.00 57 1005.2
20260507110123 51 273 6.1 12.2 0.00 0.00 0.00 60 1005.3
20260507105126 51 266 6.1 14.8 0.00 0.00 0.00 61 1005.3
20260507104122 51 261 7.0 13.9 0.00 0.00 0.00 59 1005.2
20260507103122 51 260 5.2 11.3 0.00 0.00 0.00 61 1005.2
20260507102124 51 259 5.2 11.3 0.00 0.00 0.00 62 1005.2
20260507101123 52 251 7.8 16.5 0.00 0.00 0.00 62 1005.2
20260507100122 51 254 7.0 15.6 0.00 0.00 0.00 63 1005.3
20260507095126 51 266 7.0 13.9 0.00 0.00 0.00 64 1005.3
20260507094122 51 259 6.1 13.9 0.00 0.00 0.00 64 1005.2
20260507093122 51 257 5.2 12.2 0.00 0.00 0.00 64 1005.1
20260507092126 50 248 5.2 12.2 0.00 0.00 0.00 65 1005.1
20260507091122 50 254 6.1 13.9 0.00 0.00 0.00 65 1005.0
20260507090122 50 254 4.3 9.6 0.00 0.00 0.00 65 1005.0
20260507085122 51 240 5.2 11.3 0.00 0.00 0.00 61 1005.0
20260507084124 51 238 6.1 12.2 0.00 0.00 0.00 61 1004.9
20260507083122 52 219 5.2 12.2 0.00 0.00 0.00 60 1004.8
20260507082122 51 226 5.2 11.3 0.00 0.00 0.00 62 1005.0
20260507081143 52 223 4.3 11.3 0.00 0.00 0.00 61 1005.1
20260507080144 52 242 6.1 12.2 0.00 0.00 0.00 62 1005.1
20260507075122 51 244 7.0 13.9 0.00 0.00 0.00 62 1005.2
20260507074123 51 249 5.2 12.2 0.00 0.00 0.00 67 1005.1
20260507073123 51 198 4.3 9.6 0.00 0.00 0.00 67 1005.1
20260507072124 51 251 5.2 11.3 0.00 0.00 0.00 66 1005.3
20260507071122 52 260 3.5 7.8 0.00 0.00 0.00 62 1005.3
20260507070122 51 262 3.5 9.6 0.00 0.00 0.00 60 1005.3
20260507065143 51 260 3.5 7.0 0.00 0.00 0.00 58 1005.3
20260507064122 51 263 3.5 7.8 0.00 0.00 0.00 56 1005.3
20260507063143 52 273 3.5 7.8 0.00 0.00 0.00 55 1005.3
20260507062122 52 300 3.5 7.8 0.00 0.00 0.00 53 1005.3
20260507061122 51 336 4.3 10.4 0.00 0.00 0.00 53 1005.2
20260507060143 50 16 2.6 7.0 0.00 0.00 0.00 53 1005.2
20260507055122 50 7 3.5 9.6 0.00 0.00 0.00 53 1005.3
20260507054123 51 90 1.7 5.2 0.00 0.00 0.00 53 1004.8
20260507053123 51 315 0.0 2.6 0.00 0.00 0.00 48 1004.7
20260507052144 50 86 1.7 5.2 0.00 0.00 0.00 49 1004.6
20260507051123 50 80 2.6 7.0 0.00 0.00 0.00 49 1004.5
20260507050122 49 349 1.7 5.2 0.00 0.00 0.00 52 1004.5
20260507045143 51 74 1.7 4.3 0.00 0.00 0.00 50 1004.4
20260507044122 51 14 2.6 4.3 0.00 0.00 0.00 50 1004.4
20260507043122 53 75 1.7 5.2 0.00 0.00 0.00 47 1004.2
20260507042122 55 104 3.5 8.7 0.00 0.00 0.00 42 1003.9
20260507041122 55 114 6.1 12.2 0.00 0.00 0.00 41 1003.5
20260507040122 55 109 5.2 11.3 0.00 0.00 0.00 41 1003.5
20260507035122 56 113 5.2 11.3 0.00 0.00 0.00 41 1003.3
20260507034143 56 112 5.2 10.4 0.00 0.00 0.00 41 1003.1
20260507033123 56 109 3.5 7.8 0.00 0.00 0.00 40 1003.0
20260507032122 57 107 5.2 11.3 0.00 0.00 0.00 38 1002.8
20260507031143 57 105 6.1 11.3 0.00 0.00 0.00 38 1002.7
20260507030122 58 86 6.1 11.3 0.00 0.00 0.00 37 1002.7
20260507025143 59 88 6.1 14.8 0.00 0.00 0.00 36 1002.5
20260507024122 60 78 7.8 16.5 0.00 0.00 0.00 34 1002.3
20260507023122 61 89 9.6 20.0 0.00 0.00 0.00 33 1002.2
20260507022123 62 88 11.3 23.5 0.00 0.00 0.00 32 1002.1
20260507021122 63 90 11.3 26.1 0.00 0.00 0.00 30 1002.0
20260507020123 63 84 12.2 26.9 0.00 0.00 0.00 28 1002.0
20260507015144 66 92 7.8 20.0 0.00 0.00 0.00 29 1001.8
20260507014122 66 87 5.2 12.2 0.00 0.00 0.00 29 1001.9
20260507013122 66 72 5.2 14.8 0.00 0.00 0.00 29 1001.8
20260507012122 66 70 8.7 22.6 0.00 0.00 0.00 29 1001.7
20260507011122 66 13 7.0 19.1 0.00 0.00 0.00 30 1001.7